Location: Pouydesseaux
(43.9691°N, 0.3243°W)
Time: 08:54:07
(UTC+00:00)

Daily predictions for brighter satellites

Satellite Brightness Start Highest point End
(mag) Time Altitude Azimuth Time Altitude Azimuth Time Altitude Azimuth
Cosmos 2219 Rocket 2.4 17:42:17 10° NNW 17:47:54 81° WSW 17:53:28 10° SSE
AQUARIUS 4.1 17:44:52 10° SSE 17:49:15 81° ENE 17:53:41 10° N
SJ-12 3.7 17:45:52 10° SSE 17:49:40 80° ENE 17:53:29 10° N
NOSS 3-3 (A) 4.1 17:45:02 10° S 17:49:44 42° ESE 17:55:11 10° NE
MOS 1 Rocket 4.1 17:47:25 10° S 17:51:55 54° W 17:56:13 10° NNW
IRS-P3 4.1 17:47:13 10° SSE 17:52:27 64° ENE 17:57:44 10° N
Cosmos 2322 4.0 17:47:27 10° NNW 17:52:57 46° ENE 17:58:26 10° SE
USA 306 3.5 17:51:14 10° NNW 17:53:13 16° NNE 17:54:46 10° NE
Resurs 1-3 4.0 17:49:51 10° SE 17:53:50 38° ENE 17:57:50 10° N
Cosmos 2016 Rocket 4.0 17:49:34 10° N 17:55:46 63° E 18:02:00 10° SSE
Cosmos 1025 Rocket 3.7 17:53:10 10° SSE 17:56:59 32° E 18:00:49 10° NNE
Cosmos 2242 Rocket 3.6 17:52:40 10° S 17:57:03 87° E 18:01:27 10° N
Cosmos 1802 Rocket 4.1 17:52:43 10° N 17:59:10 79° E 18:05:35 10° S
SPOT 1/Viking Rocket 3.5 17:57:31 10° SSE 18:02:37 80° ENE 18:07:45 10° N
SJ-6B 4.3 18:05:37 10° E 18:07:17 13° ENE 18:08:58 10° NE
CZ-2D R/B 3.8 18:07:03 10° S 18:10:01 48° W 18:13:01 10° NNW
CZ-2D R/B 3.5 18:07:59 10° SE 18:11:42 46° ENE 18:15:31 10° N
Cosmos 2233 Rocket 4.0 18:05:31 10° N 18:11:44 62° E 18:17:57 10° SSE
Cosmos 1674 Rocket 3.5 18:08:46 10° S 18:13:04 62° E 18:17:25 10° NNE
Cosmos 2360 Rocket 4.4 18:08:33 10° NW 18:13:23 30° WSW 18:18:13 10° SSW
Meteor 1-11 4.2 18:10:47 10° S 18:16:21 77° E 18:22:03 10° NNE
Cosmos 1725 Rocket 4.1 18:10:26 10° N 18:16:42 85° W 18:22:58 10° S
Cosmos 1315 Rocket 2.6 18:13:47 10° N 18:17:35 76° E 18:21:22 10° SSE
Cosmos 1867 4.2 18:15:20 10° SW 18:20:39 58° NW 18:26:04 10° NNE
SL-08 R/B 4.4 18:17:21 10° N 18:23:34 87° E 18:29:39 10° S
Lacrosse 5 rocket 2.6 18:21:58 10° W 18:25:01 27° NNW 18:28:07 10° NNE
Atlas Centaur 2 4.2 18:19:32 10° SW 18:25:22 24° S 18:30:34 10° ESE
SAR-Lupe-1 4.4 18:22:18 10° S 18:25:50 68° WSW 18:29:24 10° NNW
Cosmos 2061 Rocket 4.0 18:20:33 10° N 18:26:57 70° E 18:33:14 10° SSE
Helios 1A Rocket 3.9 18:28:45 17° ESE 18:28:45 17° ESE 18:30:29 10° SE
CZ-4C R/B 1.7 18:26:11 10° SW 18:30:15 79° NW 18:35:27 10° NE
BlueWalker 3 4.3 18:29:35 10° W 18:32:23 22° SW 18:35:09 10° S
Cosmos 2151 Rocket 3.6 18:28:03 10° N 18:32:34 86° W 18:37:04 10° S
Meteor 2-1 Rocket 4.2 18:26:56 10° N 18:32:43 70° ENE 18:38:36 10° SSE
Radarsat Rocket 3.9 18:27:53 10° SSE 18:33:40 75° ENE 18:39:49 10° NNW
CARTOSAT-1 3.5 18:29:37 10° SSE 18:33:44 58° ENE 18:37:53 10° N
Tiangong 0.0 18:34:31 10° S 18:36:25 15° SSE 18:37:06 14° SE
USA 290 4.0 18:35:18 10° SW 18:38:13 32° WNW 18:41:09 10° N
NOSS 0 Rocket 3.9 18:32:34 10° NNW 18:38:50 70° ENE 18:45:02 10° SE
Cosmos 1356 Rocket 3.5 18:36:15 10° NNW 18:40:10 71° W 18:44:07 10° S
Cosmos 2297 Rocket 2.2 18:40:59 10° S 18:46:31 58° ESE 18:52:04 10° NNE
Cosmos 1607 4.4 18:40:55 10° SW 18:46:58 61° NW 18:53:06 10° NNE
USA 267 4.4 18:41:48 10° NE 18:47:33 35° NNW 18:53:20 10° W
Cosmos 1570 Rocket 4.2 18:42:37 10° S 18:47:39 46° ESE 18:52:40 10° NNE
Cosmos 2344 4.4 18:41:57 10° SSE 18:48:36 27° ESE 18:51:12 22° E
CSL-04 Rocket 4.5 18:47:26 24° E 18:48:55 27° ENE 18:53:18 10° N
BREEZE-M DEB (TANK) 4.0 18:46:14 10° WNW 18:49:53 66° NNE 18:56:52 20° ESE
Cosmos 1975 Rocket 3.8 18:47:04 10° SSE 18:50:38 29° E 18:50:38 29° E
Cosmos 1455 Rocket 3.1 18:48:42 10° N 18:52:52 48° ENE 18:57:01 10° SSE
Cosmos 2221 Rocket 3.7 18:51:10 10° SSW 18:55:37 76° W 19:00:07 10° N
Cosmos 1125 Rocket 3.4 18:50:27 10° NNW 18:55:39 79° ENE 19:00:51 10° SSE
YAOGAN 1 3.6 18:51:34 10° S 18:55:39 47° W 18:59:47 10° NNW
Okean 2 Rocket 3.8 18:57:25 10° NNW 19:01:43 54° W 19:05:58 10° S
NOAA 6 4.2 18:56:48 10° S 19:01:56 76° WSW 19:07:07 10° NNW
YAOGAN 3 4.5 18:57:57 10° SSE 19:02:09 84° WSW 19:06:23 10° NNW
Meteor 1-27 4.2 18:58:07 10° N 19:03:52 63° ENE 19:09:36 10° SSE
Cosmos 2208 Rocket 4.2 18:59:53 10° S 19:04:50 47° ESE 19:07:29 26° NE
Okean 1 Rocket 3.6 19:00:42 10° NNW 19:05:02 59° W 19:09:19 10° S
DMSP B5D1-3 4.5 19:00:49 10° NNE 19:05:57 89° WNW 19:11:03 10° SSW
BREEZE-M DEB (TANK) 4.4 19:01:26 10° WNW 19:06:29 76° NNE 19:19:58 22° ESE
NOSS 3-3 (C) 4.1 19:06:15 10° SW 19:11:21 60° NW 19:16:44 13° NNE
Sich 1 Rocket 4.4 19:06:57 10° NNW 19:11:25 55° W 19:15:50 10° S
COSMOS 2428 3.6 19:07:26 10° NW 19:12:56 50° WSW 19:18:25 10° S
Meteor 2-17 Rocket 4.3 19:07:42 10° S 19:13:42 67° E 19:19:42 10° NNE
Resurs 01 Rocket 2.0 19:12:07 10° S 19:16:27 65° W 19:20:50 10° NNW
Cosmos 1980 3.6 19:11:01 10° NNW 19:16:43 82° ENE 19:20:52 19° SSE
Cosmos 2263 Rocket 4.0 19:15:29 10° SSE 19:16:38 15° SSE 19:16:38 15° SSE
Cosmos 44 Rocket 3.3 19:15:55 10° SSW 19:20:42 58° ESE 19:21:21 53° E
ATLAS 5 CENTAUR R/B 4.1 19:17:28 10° WNW 19:21:17 25° WSW 19:25:43 10° S
Cosmos 773 Rocket 3.9 19:16:54 10° S 19:22:07 72° ESE 19:25:07 26° NNE
Cosmos 2237 Rocket 2.1 19:16:36 10° NNW 19:22:20 83° ENE 19:25:52 24° SSE
COSMO-SKYMED 1 4.4 19:20:40 10° N 19:24:12 28° WNW 19:27:44 10° SW
Aureole 3 Rocket 3.8 19:21:45 10° NNW 19:25:35 42° W 19:28:41 10° SSW
Cosmos 2228 3.8 19:22:59 10° N 19:25:37 36° NNE 19:25:37 36° NNE
Orbus 7S? 4.1 19:21:08 10° NW 19:28:38 51° NNE 19:28:58 50° NE
Cosmos 2150 Rocket 3.9 19:29:07 10° NNW 19:33:58 59° NE 19:33:58 59° NE
Cosmos 2298 Rocket 4.0 19:29:45 10° NNW 19:34:42 58° NE 19:34:42 58° NE
SJ-6B 3.8 19:39:27 33° SW 19:40:19 39° W 19:43:35 10° NNW
BREEZE-M DEB (TANK) 4.0 19:37:09 10° WNW 19:41:38 65° SSW 19:46:30 27° SE
Cosmos 2227 Rocket 2.0 19:39:49 10° SSW 19:45:25 74° ESE 19:45:30 74° ESE
SL-16 R/B 3.2 19:40:39 10° NNW 19:44:19 32° NNE 19:44:19 32° NNE
SPOT 5 3.0 19:47:23 62° N 19:47:23 62° N 19:51:34 10° N
Cosmos 1816 Rocket 4.4 19:52:29 10° S 19:58:37 81° W 20:04:51 10° N
NOSS 3-4 (A) 3.8 19:53:58 10° NW 20:00:53 90° NE 20:02:40 58° SE
NOSS 3-4 (C) 3.8 19:54:14 10° NW 20:01:10 89° NE 20:02:53 59° SE
Lacrosse 5 rocket 4.0 20:01:36 10° NNW 20:01:47 10° NNW 20:01:47 10° NNW
Cosmos 2034 Rocket 3.8 19:56:49 10° N 20:02:53 84° NE 20:02:53 84° NE
BREEZE-M DEB (TANK) 3.8 19:51:16 10° W 20:09:55 79° N 20:10:45 69° NE
Atlas Centaur 2 4.0 20:07:43 10° WSW 20:12:54 23° S 20:12:54 23° S
CZ-4C R/B 4.2 20:16:17 10° WNW 20:19:34 18° NNW 20:21:07 16° N
BREEZE-M (TANK) 4.3 20:25:13 10° WNW 20:28:31 49° SW 20:28:31 49° SW
Cosmos 2297 Rocket 4.2 20:26:20 10° WSW 20:30:56 25° NW 20:34:29 14° N
Cosmos 2344 4.0 20:54:41 10° SW 21:01:17 54° W 21:01:17 54° W
